| time (UTC) | temp F | wind direction | speed knots | gust knots | rain 1hr in | rain 24hr in | rain mn in | humidity % | barometer mb |
| 20260507010904 | 66 | 360 | 0.9 | 3.5 | 0.00 | 0.00 | 0.00 | 81 | 1007.9 |
| 20260507010004 | 66 | 360 | 0.9 | 4.3 | 0.00 | 0.00 | 0.00 | 81 | 1007.9 |
| 20260507005403 | 66 | 360 | 0.9 | 3.5 | 0.00 | 0.00 | 0.00 | 81 | 1007.9 |
| 20260507004503 | 66 | 360 | 1.7 | 4.3 | 0.00 | 0.00 | 0.00 | 80 | 1007.6 |
| 20260507003603 | 66 | 360 | 2.6 | 9.6 | 0.00 | 0.00 | 0.00 | 81 | 1007.9 |
| 20260507002704 | 66 | 360 | 0.9 | 4.3 | 0.00 | 0.00 | 0.00 | 80 | 1007.7 |
| 20260507001804 | 66 | 360 | 0.9 | 2.6 | 0.00 | 0.00 | 0.00 | 79 | 1007.3 |
| 20260507000904 | 67 | 360 | 0.9 | 3.5 | 0.00 | 0.00 | 0.00 | 79 | 1007.2 |
| 20260507000004 | 67 | 360 | 2.6 | 4.3 | 0.00 | 0.00 | 0.00 | 78 | 1007.2 |
| 20260506235403 | 67 | 360 | 2.6 | 8.7 | 0.00 | 0.00 | 0.00 | 78 | 1007.0 |
| 20260506234503 | 68 | 343 | 1.7 | 7.0 | 0.00 | 0.00 | 0.00 | 78 | 1007.2 |
| 20260506233604 | 68 | 209 | 1.7 | 7.0 | 0.00 | 0.00 | 0.00 | 77 | 1007.0 |
| 20260506232703 | 68 | 207 | 1.7 | 6.1 | 0.00 | 0.00 | 0.00 | 77 | 1007.2 |
| 20260506231803 | 68 | 214 | 2.6 | 7.0 | 0.00 | 0.00 | 0.00 | 77 | 1007.3 |
| 20260506231117 | 69 | 214 | 1.7 | 6.1 | 0.00 | 0.00 | 0.00 | 76 | 1007.1 |
| 20260506230219 | 69 | 205 | 2.6 | 7.0 | 0.00 | 0.00 | 0.00 | 76 | 1007.1 |
| 20260506225404 | 69 | 206 | 3.5 | 7.8 | 0.00 | 0.00 | 0.00 | 75 | 1007.2 |
| 20260506224718 | 70 | 221 | 3.5 | 7.0 | 0.00 | 0.00 | 0.00 | 75 | 1007.3 |
| 20260506223604 | 70 | 229 | 4.3 | 13.0 | 0.00 | 0.00 | 0.00 | 75 | 1007.3 |
| 20260506222704 | 70 | 232 | 4.3 | 12.2 | 0.00 | 0.00 | 0.00 | 74 | 1007.2 |
| 20260506221804 | 70 | 214 | 3.5 | 7.8 | 0.00 | 0.00 | 0.00 | 74 | 1007.0 |
| 20260506220903 | 70 | 225 | 2.6 | 7.8 | 0.00 | 0.00 | 0.00 | 74 | 1007.1 |
| 20260506220003 | 70 | 226 | 3.5 | 10.4 | 0.00 | 0.00 | 0.00 | 74 | 1006.9 |
| 20260506215404 | 70 | 231 | 3.5 | 10.4 | 0.00 | 0.00 | 0.00 | 73 | 1006.7 |
| 20260506214504 | 70 | 219 | 4.3 | 12.2 | 0.00 | 0.00 | 0.00 | 73 | 1007.0 |
| 20260506213603 | 71 | 227 | 4.3 | 13.9 | 0.00 | 0.00 | 0.00 | 74 | 1006.9 |
| 20260506212705 | 70 | 229 | 3.5 | 10.4 | 0.00 | 0.00 | 0.00 | 74 | 1006.7 |
| 20260506211803 | 70 | 230 | 3.5 | 10.4 | 0.00 | 0.00 | 0.00 | 74 | 1006.8 |
| 20260506210903 | 70 | 226 | 4.3 | 13.0 | 0.00 | 0.00 | 0.00 | 74 | 1006.8 |
| 20260506210003 | 70 | 221 | 4.3 | 12.2 | 0.00 | 0.00 | 0.00 | 73 | 1006.7 |
| 20260506205404 | 70 | 196 | 2.6 | 10.4 | 0.00 | 0.00 | 0.00 | 73 | 1006.6 |
| 20260506204503 | 70 | 218 | 4.3 | 10.4 | 0.00 | 0.00 | 0.00 | 73 | 1006.4 |
| 20260506203603 | 70 | 222 | 4.3 | 10.4 | 0.00 | 0.00 | 0.00 | 73 | 1006.4 |
| 20260506202919 | 70 | 221 | 5.2 | 12.2 | 0.00 | 0.00 | 0.00 | 73 | 1006.4 |
| 20260506201805 | 70 | 230 | 4.3 | 10.4 | 0.00 | 0.00 | 0.00 | 74 | 1006.5 |
| 20260506200904 | 70 | 212 | 4.3 | 14.8 | 0.00 | 0.00 | 0.00 | 74 | 1006.4 |
| 20260506200004 | 70 | 210 | 5.2 | 14.8 | 0.00 | 0.00 | 0.00 | 74 | 1006.6 |
| 20260506195404 | 70 | 216 | 5.2 | 11.3 | 0.00 | 0.00 | 0.00 | 74 | 1006.7 |
| 20260506194503 | 69 | 239 | 4.3 | 16.5 | 0.00 | 0.00 | 0.00 | 74 | 1006.8 |
| 20260506193603 | 69 | 229 | 6.1 | 16.5 | 0.00 | 0.00 | 0.00 | 74 | 1007.0 |
| 20260506192920 | 69 | 256 | 5.2 | 13.9 | 0.00 | 0.00 | 0.00 | 74 | 1007.1 |
| 20260506191805 | 68 | 360 | 5.2 | 13.9 | 0.00 | 0.00 | 0.00 | 76 | 1007.3 |
| 20260506190903 | 68 | 360 | 5.2 | 13.0 | 0.00 | 0.00 | 0.00 | 76 | 1007.3 |
| 20260506190004 | 68 | 360 | 5.2 | 14.8 | 0.00 | 0.00 | 0.00 | 77 | 1007.3 |
| 20260506185403 | 68 | 360 | 5.2 | 14.8 | 0.00 | 0.00 | 0.00 | 77 | 1007.3 |
| 20260506184504 | 67 | 360 | 4.3 | 13.0 | 0.00 | 0.00 | 0.00 | 77 | 1007.3 |
| 20260506183604 | 67 | 360 | 5.2 | 12.2 | 0.00 | 0.00 | 0.00 | 78 | 1007.5 |
| 20260506182703 | 67 | 360 | 5.2 | 14.8 | 0.00 | 0.00 | 0.00 | 78 | 1007.6 |
| 20260506181803 | 66 | 360 | 4.3 | 11.3 | 0.00 | 0.00 | 0.00 | 79 | 1007.9 |
| 20260506180903 | 66 | 360 | 6.1 | 18.2 | 0.00 | 0.00 | 0.00 | 79 | 1007.7 |
| 20260506180005 | 66 | 360 | 7.0 | 18.2 | 0.00 | 0.00 | 0.00 | 80 | 1007.7 |
| 20260506175404 | 66 | 360 | 4.3 | 16.5 | 0.00 | 0.00 | 0.00 | 81 | 1007.7 |
| 20260506174503 | 65 | 360 | 5.2 | 11.3 | 0.00 | 0.00 | 0.00 | 83 | 1007.7 |
| 20260506173819 | 65 | 360 | 5.2 | 11.3 | 0.00 | 0.00 | 0.00 | 82 | 1007.8 |
| 20260506172705 | 65 | 360 | 4.3 | 13.0 | 0.00 | 0.00 | 0.00 | 81 | 1007.8 |
| 20260506171804 | 65 | 360 | 4.3 | 13.9 | 0.00 | 0.00 | 0.00 | 80 | 1008.1 |
| 20260506170903 | 65 | 360 | 4.3 | 13.9 | 0.00 | 0.00 | 0.00 | 80 | 1008.2 |
| 20260506170218 | 65 | 360 | 4.3 | 12.2 | 0.00 | 0.00 | 0.00 | 80 | 1008.3 |
| 20260506165403 | 65 | 360 | 4.3 | 10.4 | 0.00 | 0.00 | 0.00 | 80 | 1008.4 |
| 20260506164503 | 66 | 360 | 4.3 | 11.3 | 0.00 | 0.00 | 0.00 | 80 | 1008.5 |
| 20260506163819 | 66 | 360 | 6.1 | 13.9 | 0.00 | 0.00 | 0.00 | 79 | 1008.4 |
| 20260506162704 | 67 | 360 | 3.5 | 11.3 | 0.00 | 0.00 | 0.00 | 78 | 1008.5 |
| 20260506162019 | 67 | 360 | 3.5 | 9.6 | 0.00 | 0.00 | 0.00 | 77 | 1008.8 |
| 20260506160904 | 67 | 360 | 4.3 | 12.2 | 0.00 | 0.00 | 0.00 | 76 | 1009.3 |
| 20260506160003 | 68 | 360 | 6.1 | 13.9 | 0.00 | 0.00 | 0.00 | 73 | 1009.5 |
| 20260506155404 | 69 | 360 | 6.1 | 12.2 | 0.00 | 0.00 | 0.00 | 72 | 1009.4 |
| 20260506154503 | 70 | 360 | 7.0 | 16.5 | 0.00 | 0.00 | 0.00 | 70 | 1009.4 |
| 20260506153603 | 70 | 360 | 5.2 | 16.5 | 0.00 | 0.00 | 0.00 | 70 | 1009.4 |
| 20260506152917 | 70 | 360 | 4.3 | 16.5 | 0.00 | 0.00 | 0.00 | 70 | 1009.2 |
| 20260506151804 | 70 | 360 | 5.2 | 13.9 | 0.00 | 0.00 | 0.00 | 68 | 1009.3 |
| 20260506150904 | 70 | 360 | 4.3 | 13.0 | 0.00 | 0.00 | 0.00 | 67 | 1009.4 |
| 20260506150219 | 70 | 360 | 3.5 | 10.4 | 0.00 | 0.00 | 0.00 | 66 | 1009.3 |
| 20260506145621 | 70 | 360 | 3.5 | 13.0 | 0.00 | 0.00 | 0.00 | 67 | 1009.3 |
| 20260506144504 | 70 | 360 | 4.3 | 13.0 | 0.00 | 0.00 | 0.00 | 68 | 1009.3 |
| 20260506143603 | 69 | 360 | 5.2 | 11.3 | 0.00 | 0.00 | 0.00 | 69 | 1009.4 |
| 20260506142703 | 69 | 360 | 3.5 | 11.3 | 0.00 | 0.00 | 0.00 | 68 | 1009.4 |
| 20260506141804 | 69 | 360 | 3.5 | 9.6 | 0.00 | 0.00 | 0.00 | 69 | 1009.4 |
| 20260506140903 | 69 | 360 | 4.3 | 9.6 | 0.00 | 0.00 | 0.00 | 68 | 1009.4 |
| 20260506140003 | 69 | 360 | 4.3 | 13.0 | 0.00 | 0.00 | 0.00 | 67 | 1009.4 |
| 20260506135403 | 69 | 360 | 5.2 | 13.0 | 0.00 | 0.00 | 0.00 | 68 | 1009.3 |
| 20260506134505 | 69 | 360 | 5.2 | 15.6 | 0.00 | 0.00 | 0.00 | 68 | 1009.2 |
| 20260506133604 | 68 | 360 | 4.3 | 13.0 | 0.00 | 0.00 | 0.00 | 69 | 1009.3 |
| 20260506132703 | 68 | 360 | 4.3 | 11.3 | 0.00 | 0.00 | 0.00 | 69 | 1009.3 |
| 20260506131803 | 67 | 360 | 3.5 | 9.6 | 0.00 | 0.00 | 0.00 | 70 | 1009.4 |
| 20260506130904 | 68 | 360 | 4.3 | 10.4 | 0.00 | 0.00 | 0.00 | 70 | 1009.4 |
| 20260506130005 | 68 | 360 | 5.2 | 12.2 | 0.00 | 0.00 | 0.00 | 69 | 1009.6 |
| 20260506125403 | 68 | 360 | 3.5 | 12.2 | 0.00 | 0.00 | 0.00 | 69 | 1009.7 |
| 20260506124504 | 68 | 360 | 5.2 | 12.2 | 0.00 | 0.00 | 0.00 | 69 | 1009.8 |
| 20260506123604 | 68 | 360 | 4.3 | 12.2 | 0.00 | 0.00 | 0.00 | 69 | 1009.8 |
| 20260506122703 | 68 | 360 | 3.5 | 8.7 | 0.00 | 0.00 | 0.00 | 70 | 1009.7 |
| 20260506122021 | 67 | 360 | 4.3 | 10.4 | 0.00 | 0.00 | 0.00 | 71 | 1009.9 |
| 20260506120904 | 66 | 360 | 3.5 | 10.4 | 0.00 | 0.00 | 0.00 | 73 | 1009.8 |
| 20260506120004 | 66 | 360 | 5.2 | 13.0 | 0.00 | 0.00 | 0.00 | 72 | 1009.6 |
| 20260506115623 | 66 | 360 | 5.2 | 13.0 | 0.00 | 0.00 | 0.00 | 73 | 1009.7 |
| 20260506114503 | 65 | 360 | 4.3 | 12.2 | 0.00 | 0.00 | 0.00 | 73 | 1009.5 |
| 20260506113603 | 65 | 360 | 4.3 | 13.0 | 0.00 | 0.00 | 0.00 | 74 | 1009.6 |
| 20260506112703 | 65 | 360 | 3.5 | 7.8 | 0.00 | 0.00 | 0.00 | 75 | 1009.6 |
| 20260506111803 | 64 | 360 | 4.3 | 11.3 | 0.00 | 0.00 | 0.00 | 75 | 1009.7 |
| 20260506110904 | 64 | 360 | 3.5 | 10.4 | 0.00 | 0.00 | 0.00 | 76 | 1009.6 |
| 20260506110004 | 63 | 360 | 3.5 | 10.4 | 0.00 | 0.00 | 0.00 | 77 | 1009.6 |
| 20260506105405 | 63 | 360 | 3.5 | 9.6 | 0.00 | 0.00 | 0.00 | 77 | 1009.6 |
| 20260506104721 | 63 | 360 | 3.5 | 9.6 | 0.00 | 0.00 | 0.00 | 77 | 1009.6 |
| 20260506103604 | 63 | 360 | 3.5 | 8.7 | 0.00 | 0.00 | 0.00 | 77 | 1009.6 |
| 20260506102703 | 63 | 360 | 3.5 | 8.7 | 0.00 | 0.00 | 0.00 | 77 | 1009.6 |
| 20260506101803 | 62 | 360 | 2.6 | 7.8 | 0.00 | 0.00 | 0.00 | 77 | 1009.6 |
| 20260506100903 | 62 | 360 | 2.6 | 9.6 | 0.00 | 0.00 | 0.00 | 78 | 1009.6 |
| 20260506100004 | 62 | 360 | 2.6 | 9.6 | 0.00 | 0.00 | 0.00 | 78 | 1009.6 |
| 20260506095619 | 62 | 360 | 3.5 | 10.4 | 0.00 | 0.00 | 0.00 | 78 | 1009.5 |
| 20260506094503 | 63 | 360 | 3.5 | 7.8 | 0.00 | 0.00 | 0.00 | 78 | 1009.4 |
| 20260506093603 | 63 | 360 | 2.6 | 9.6 | 0.00 | 0.00 | 0.00 | 78 | 1009.3 |
| 20260506092703 | 63 | 360 | 2.6 | 7.8 | 0.00 | 0.00 | 0.00 | 78 | 1009.4 |
| 20260506091803 | 63 | 360 | 2.6 | 8.7 | 0.00 | 0.00 | 0.00 | 78 | 1009.3 |
| 20260506090904 | 63 | 360 | 2.6 | 9.6 | 0.00 | 0.00 | 0.00 | 79 | 1009.5 |
| 20260506090003 | 63 | 360 | 2.6 | 7.8 | 0.00 | 0.00 | 0.00 | 79 | 1009.5 |
| 20260506085403 | 63 | 360 | 2.6 | 8.7 | 0.00 | 0.00 | 0.00 | 79 | 1009.5 |
| 20260506084503 | 63 | 360 | 3.5 | 9.6 | 0.00 | 0.00 | 0.00 | 79 | 1009.5 |
| 20260506083819 | 63 | 360 | 3.5 | 8.7 | 0.00 | 0.00 | 0.00 | 79 | 1009.6 |
| 20260506082917 | 64 | 360 | 3.5 | 9.6 | 0.00 | 0.00 | 0.00 | 78 | 1009.7 |
| 20260506081803 | 64 | 360 | 3.5 | 8.7 | 0.00 | 0.00 | 0.00 | 78 | 1009.9 |
| 20260506080905 | 64 | 360 | 3.5 | 10.4 | 0.00 | 0.00 | 0.00 | 78 | 1009.8 |
| 20260506072703 | 64 | 360 | 2.6 | 9.6 | 0.00 | 0.00 | 0.00 | 78 | 1009.8 |
| 20260506071803 | 64 | 360 | 1.7 | 10.4 | 0.00 | 0.00 | 0.00 | 78 | 1009.8 |
| 20260506070903 | 64 | 360 | 2.6 | 8.7 | 0.00 | 0.00 | 0.00 | 78 | 1009.8 |
| 20260506061804 | 65 | 171 | 3.5 | 10.4 | 0.00 | 0.00 | 0.00 | 78 | 1010.0 |
| 20260506060903 | 65 | 174 | 3.5 | 7.8 | 0.00 | 0.00 | 0.00 | 77 | 1010.0 |
| 20260506050903 | 66 | 360 | 3.5 | 10.4 | 0.00 | 0.00 | 0.00 | 76 | 1010.3 |
| 20260506044504 | 66 | 360 | 3.5 | 11.3 | 0.00 | 0.00 | 0.00 | 75 | 1010.4 |
| 20260506043603 | 66 | 360 | 3.5 | 10.4 | 0.00 | 0.00 | 0.00 | 75 | 1010.4 |
| 20260506042703 | 66 | 360 | 3.5 | 12.2 | 0.00 | 0.00 | 0.00 | 75 | 1010.5 |
| 20260506041804 | 66 | 360 | 3.5 | 8.7 | 0.00 | 0.00 | 0.00 | 75 | 1010.5 |
| 20260506040903 | 66 | 360 | 2.6 | 9.6 | 0.00 | 0.00 | 0.00 | 75 | 1010.3 |
| 20260506040005 | 66 | 360 | 2.6 | 7.8 | 0.00 | 0.00 | 0.00 | 75 | 1010.4 |
| 20260506035403 | 66 | 360 | 3.5 | 8.7 | 0.00 | 0.00 | 0.00 | 74 | 1010.4 |
| 20260506034504 | 66 | 360 | 3.5 | 10.4 | 0.00 | 0.00 | 0.00 | 74 | 1010.4 |
| 20260506033605 | 66 | 360 | 3.5 | 9.6 | 0.00 | 0.00 | 0.00 | 74 | 1010.3 |
| 20260506032703 | 66 | 360 | 2.6 | 9.6 | 0.00 | 0.00 | 0.00 | 74 | 1010.3 |
| 20260506031805 | 66 | 360 | 2.6 | 10.4 | 0.00 | 0.00 | 0.00 | 73 | 1010.4 |
| 20260506030904 | 66 | 360 | 3.5 | 7.8 | 0.00 | 0.00 | 0.00 | 73 | 1010.5 |
| 20260506030004 | 67 | 360 | 3.5 | 12.2 | 0.00 | 0.00 | 0.00 | 73 | 1010.5 |
| 20260506025403 | 67 | 360 | 3.5 | 7.8 | 0.00 | 0.00 | 0.00 | 72 | 1010.6 |
| 20260506024503 | 67 | 360 | 3.5 | 10.4 | 0.00 | 0.00 | 0.00 | 72 | 1010.6 |
| 20260506023604 | 67 | 360 | 4.3 | 13.0 | 0.00 | 0.00 | 0.00 | 72 | 1010.7 |
| 20260506022703 | 67 | 360 | 4.3 | 12.2 | 0.00 | 0.00 | 0.00 | 71 | 1010.6 |
| 20260506021803 | 67 | 360 | 4.3 | 11.3 | 0.00 | 0.00 | 0.00 | 70 | 1010.7 |
| 20260506020903 | 68 | 360 | 3.5 | 9.6 | 0.00 | 0.00 | 0.00 | 70 | 1010.5 |
| 20260506020217 | 68 | 360 | 3.5 | 10.4 | 0.00 | 0.00 | 0.00 | 69 | 1010.5 |
| 20260506015404 | 68 | 360 | 4.3 | 10.4 | 0.00 | 0.00 | 0.00 | 68 | 1010.5 |
| 20260506014503 | 68 | 360 | 3.5 | 10.4 | 0.00 | 0.00 | 0.00 | 67 | 1010.4 |
| 20260506013604 | 69 | 360 | 4.3 | 11.3 | 0.00 | 0.00 | 0.00 | 66 | 1010.1 |
| 20260506012703 | 69 | 360 | 4.3 | 11.3 | 0.00 | 0.00 | 0.00 | 65 | 1010.2 |
| 20260506012018 | 69 | 360 | 3.5 | 10.4 | 0.00 | 0.00 | 0.00 | 64 | 1010.0 |